Time,TemperatureF,DewpointF,PressureIn,WindDirection,WindDirectionDegrees,WindSpeedMPH,WindSpeedGustMPH,Humidity,HourlyPrecipIn,Conditions,Clouds,dailyrainin,SoftwareType,DateUTC
2013-06-06 00:04:00,39.1,36.4,28.07,East,100,0.0,0.0,90,0.00,,---,0.00,VWS V14.01,2013-06-06 05:04:00,
2013-06-06 00:09:00,39.1,36.4,28.07,East,100,0.0,0.0,90,0.00,,---,0.00,VWS V14.01,2013-06-06 05:09:00,
2013-06-06 00:14:00,39.2,36.5,28.07,East,100,0.0,0.0,90,0.00,,---,0.00,VWS V14.01,2013-06-06 05:14:00,
2013-06-06 00:19:00,39.3,36.6,28.07,East,100,0.0,0.0,90,0.00,,---,0.00,VWS V14.01,2013-06-06 05:19:00,
2013-06-06 00:25:00,39.4,36.4,28.07,East,100,0.0,0.0,89,0.00,,---,0.00,VWS V14.01,2013-06-06 05:25:00,
2013-06-06 00:30:00,39.5,36.8,28.07,East,100,0.0,0.0,90,0.00,,---,0.00,VWS V14.01,2013-06-06 05:30:00,
2013-06-06 00:35:00,39.6,36.9,28.07,East,100,0.0,0.0,90,0.00,,---,0.00,VWS V14.01,2013-06-06 05:35:00,
2013-06-06 00:40:00,39.8,37.1,28.07,East,100,0.0,0.0,90,0.00,,---,0.00,VWS V14.01,2013-06-06 05:40:00,
2013-06-06 00:45:00,40.2,37.8,28.06,East,100,0.0,0.0,91,0.00,,---,0.00,VWS V14.01,2013-06-06 05:45:00,
2013-06-06 00:50:00,40.4,38.3,28.06,East,100,0.0,0.0,92,0.00,,---,0.00,VWS V14.01,2013-06-06 05:50:00,
2013-06-06 00:56:00,40.6,38.5,28.06,East,100,0.0,0.0,92,0.00,,---,0.00,VWS V14.01,2013-06-06 05:56:00,
2013-06-06 01:01:00,40.7,38.6,28.06,East,100,0.0,0.0,92,0.00,,---,0.00,VWS V14.01,2013-06-06 06:01:00,
2013-06-06 01:06:00,40.7,38.6,28.06,East,100,0.0,0.0,92,0.00,,---,0.00,VWS V14.01,2013-06-06 06:06:00,
2013-06-06 01:11:00,40.7,38.6,28.06,East,100,0.0,0.0,92,0.00,,---,0.00,VWS V14.01,2013-06-06 06:11:00,
2013-06-06 01:16:00,41.0,38.9,28.06,East,100,0.0,1.0,92,0.00,,---,0.00,VWS V14.01,2013-06-06 06:16:00,
2013-06-06 01:21:00,41.1,38.7,28.06,East,100,0.0,0.0,91,0.00,,---,0.00,VWS V14.01,2013-06-06 06:21:00,
2013-06-06 01:26:00,41.1,38.7,28.06,East,100,0.0,0.0,91,0.00,,---,0.00,VWS V14.01,2013-06-06 06:26:00,
2013-06-06 01:31:00,41.3,38.9,28.06,East,100,0.0,0.0,91,0.00,,---,0.00,VWS V14.01,2013-06-06 06:31:00,
2013-06-06 01:37:00,41.4,39.0,28.06,East,100,0.0,0.0,91,0.00,,---,0.00,VWS V14.01,2013-06-06 06:37:00,
2013-06-06 01:42:00,41.4,39.0,28.06,East,100,2.0,3.0,91,0.00,,---,0.00,VWS V14.01,2013-06-06 06:42:00,
2013-06-06 01:47:00,41.8,39.4,28.06,East,100,0.0,3.0,91,0.00,,---,0.00,VWS V14.01,2013-06-06 06:47:00,
2013-06-06 01:52:00,42.3,39.6,28.06,East,100,0.0,2.0,90,0.00,,---,0.00,VWS V14.01,2013-06-06 06:52:00,
2013-06-06 01:57:00,42.4,39.4,28.06,East,100,0.0,3.0,89,0.00,,---,0.00,VWS V14.01,2013-06-06 06:57:00,
2013-06-06 02:02:00,42.5,39.5,28.06,East,100,0.0,0.0,89,0.00,,---,0.00,VWS V14.01,2013-06-06 07:02:00,
2013-06-06 02:07:00,42.4,39.4,28.06,East,100,0.0,0.0,89,0.00,,---,0.00,VWS V14.01,2013-06-06 07:07:00,
2013-06-06 02:12:00,42.3,39.3,28.06,East,99,0.0,1.0,89,0.00,,---,0.00,VWS V14.01,2013-06-06 07:12:00,
2013-06-06 02:17:00,42.1,39.1,28.06,East,99,0.0,0.0,89,0.00,,---,0.00,VWS V14.01,2013-06-06 07:17:00,
2013-06-06 02:22:00,42.1,39.4,28.06,East,99,0.0,0.0,90,0.00,,---,0.00,VWS V14.01,2013-06-06 07:22:00,
2013-06-06 02:27:00,42.0,39.3,28.06,East,99,0.0,0.0,90,0.00,,---,0.00,VWS V14.01,2013-06-06 07:27:00,
2013-06-06 02:32:00,41.8,39.1,28.06,East,99,0.0,0.0,90,0.00,,---,0.00,VWS V14.01,2013-06-06 07:32:00,
2013-06-06 02:37:00,41.6,38.9,28.06,East,99,0.0,0.0,90,0.00,,---,0.00,VWS V14.01,2013-06-06 07:37:00,
2013-06-06 02:43:00,41.4,39.0,28.06,East,99,0.0,0.0,91,0.00,,---,0.00,VWS V14.01,2013-06-06 07:43:00,
2013-06-06 02:48:00,41.3,38.9,28.06,East,99,0.0,0.0,91,0.00,,---,0.00,VWS V14.01,2013-06-06 07:48:00,
2013-06-06 02:53:00,41.2,39.1,28.06,East,99,0.0,0.0,92,0.00,,---,0.00,VWS V14.01,2013-06-06 07:53:00,
2013-06-06 02:58:00,41.0,38.9,28.06,East,99,0.0,0.0,92,0.00,,---,0.00,VWS V14.01,2013-06-06 07:58:00,
2013-06-06 03:03:00,40.7,38.6,28.06,East,99,0.0,0.0,92,0.00,,---,0.00,VWS V14.01,2013-06-06 08:03:00,
2013-06-06 03:08:00,40.4,38.3,28.06,East,99,0.0,0.0,92,0.00,,---,0.00,VWS V14.01,2013-06-06 08:08:00,
2013-06-06 03:13:00,40.2,38.3,28.06,East,99,0.0,0.0,93,0.00,,---,0.00,VWS V14.01,2013-06-06 08:13:00,
2013-06-06 03:18:00,40.2,38.3,28.06,East,99,0.0,0.0,93,0.00,,---,0.00,VWS V14.01,2013-06-06 08:18:00,
2013-06-06 03:23:00,40.2,38.3,28.06,East,99,0.0,0.0,93,0.00,,---,0.00,VWS V14.01,2013-06-06 08:23:00,
2013-06-06 03:28:00,40.2,38.6,28.06,East,99,0.0,0.0,94,0.00,,---,0.00,VWS V14.01,2013-06-06 08:28:00,
2013-06-06 03:33:00,40.1,38.5,28.06,East,99,0.0,0.0,94,0.00,,---,0.00,VWS V14.01,2013-06-06 08:33:00,
2013-06-06 03:38:00,40.2,38.6,28.06,East,99,0.0,0.0,94,0.00,,---,0.00,VWS V14.01,2013-06-06 08:38:00,
2013-06-06 03:44:00,40.4,38.8,28.06,East,99,0.0,0.0,94,0.00,,---,0.00,VWS V14.01,2013-06-06 08:44:00,
2013-06-06 03:49:00,40.6,39.0,28.05,East,99,0.0,0.0,94,0.00,,---,0.00,VWS V14.01,2013-06-06 08:49:00,
2013-06-06 03:54:00,40.8,39.2,28.05,East,99,0.0,0.0,94,0.00,,---,0.00,VWS V14.01,2013-06-06 08:54:00,
2013-06-06 03:59:00,41.1,39.5,28.05,East,99,0.0,1.0,94,0.00,,---,0.00,VWS V14.01,2013-06-06 08:59:00,
2013-06-06 04:04:00,41.4,39.8,28.05,East,99,1.0,1.0,94,0.00,,---,0.00,VWS V14.01,2013-06-06 09:04:00,
2013-06-06 04:09:00,41.7,40.1,28.05,East,99,0.0,0.0,94,0.00,,---,0.00,VWS V14.01,2013-06-06 09:09:00,
2013-06-06 04:14:00,42.0,40.4,28.05,East,99,0.0,0.0,94,0.00,,---,0.00,VWS V14.01,2013-06-06 09:14:00,
2013-06-06 04:19:00,42.3,40.4,28.05,East,99,0.0,0.0,93,0.00,,---,0.00,VWS V14.01,2013-06-06 09:19:00,
2013-06-06 04:24:00,42.5,40.3,28.05,East,99,0.0,0.0,92,0.00,,---,0.00,VWS V14.01,2013-06-06 09:24:00,
2013-06-06 04:29:00,42.7,40.5,28.05,East,99,0.0,0.0,92,0.00,,---,0.00,VWS V14.01,2013-06-06 09:29:00,
2013-06-06 04:35:00,42.9,40.5,28.05,East,99,0.0,0.0,91,0.00,,---,0.00,VWS V14.01,2013-06-06 09:35:00,
2013-06-06 04:40:00,43.0,40.6,28.05,East,99,0.0,0.0,91,0.00,,---,0.00,VWS V14.01,2013-06-06 09:40:00,
2013-06-06 04:45:00,43.1,40.7,28.05,East,99,0.0,1.0,91,0.00,,---,0.00,VWS V14.01,2013-06-06 09:45:00,
2013-06-06 04:50:00,43.5,41.0,28.05,East,99,2.0,3.0,91,0.00,,---,0.00,VWS V14.01,2013-06-06 09:50:00,
2013-06-06 04:55:00,43.8,41.1,28.05,East,99,0.0,0.0,90,0.00,,---,0.00,VWS V14.01,2013-06-06 09:55:00,
2013-06-06 05:00:00,44.0,41.3,28.06,East,99,0.0,0.0,90,0.00,,---,0.00,VWS V14.01,2013-06-06 10:00:00,
2013-06-06 05:05:00,44.0,41.3,28.06,East,99,0.0,0.0,90,0.00,,---,0.00,VWS V14.01,2013-06-06 10:05:00,
2013-06-06 05:10:00,44.1,41.4,28.06,East,98,0.0,1.0,90,0.00,,---,0.00,VWS V14.01,2013-06-06 10:10:00,
2013-06-06 05:16:00,44.3,41.3,28.06,East,98,1.0,5.0,89,0.00,,---,0.00,VWS V14.01,2013-06-06 10:16:00,
2013-06-06 05:21:00,44.4,41.4,28.06,East,98,1.0,1.0,89,0.00,,---,0.00,VWS V14.01,2013-06-06 10:21:00,
2013-06-06 05:26:00,44.5,41.5,28.06,East,96,0.0,2.0,89,0.00,,---,0.00,VWS V14.01,2013-06-06 10:26:00,
2013-06-06 05:31:00,44.5,41.5,28.05,East,96,0.0,3.0,89,0.00,,---,0.00,VWS V14.01,2013-06-06 10:31:00,
2013-06-06 05:36:00,44.5,41.5,28.05,East,96,1.0,1.0,89,0.00,,---,0.00,VWS V14.01,2013-06-06 10:36:00,
2013-06-06 05:41:00,44.6,41.8,28.05,East,90,2.0,3.0,90,0.00,,---,0.00,VWS V14.01,2013-06-06 10:41:00,
2013-06-06 05:47:00,44.7,42.0,28.06,East,90,0.0,0.0,90,0.00,,---,0.00,VWS V14.01,2013-06-06 10:47:00,
2013-06-06 05:52:00,44.7,42.0,28.06,East,90,1.0,3.0,90,0.00,,---,0.00,VWS V14.01,2013-06-06 10:52:00,
2013-06-06 05:57:00,44.8,42.0,28.06,East,90,0.0,0.0,90,0.00,,---,0.00,VWS V14.01,2013-06-06 10:57:00,
2013-06-06 06:02:00,44.9,42.2,28.06,East,90,1.0,1.0,90,0.00,,---,0.00,VWS V14.01,2013-06-06 11:02:00,
2013-06-06 06:07:00,45.0,42.2,28.06,East,90,0.0,0.0,90,0.00,,---,0.00,VWS V14.01,2013-06-06 11:07:00,
2013-06-06 06:12:00,45.0,42.5,28.06,East,90,0.0,3.0,91,0.00,,---,0.00,VWS V14.01,2013-06-06 11:12:00,
2013-06-06 06:17:00,45.1,42.6,28.06,East,90,1.0,3.0,91,0.00,,---,0.00,VWS V14.01,2013-06-06 11:17:00,
2013-06-06 06:22:00,45.2,42.7,28.06,East,89,0.0,0.0,91,0.00,,---,0.00,VWS V14.01,2013-06-06 11:22:00,
2013-06-06 06:27:00,45.3,42.8,28.06,ESE,109,2.0,3.0,91,0.00,,---,0.00,VWS V14.01,2013-06-06 11:27:00,
2013-06-06 06:32:00,45.4,42.9,28.06,ESE,109,0.0,2.0,91,0.00,,---,0.00,VWS V14.01,2013-06-06 11:32:00,
2013-06-06 06:38:00,45.5,43.0,28.06,ESE,108,0.0,0.0,91,0.00,,---,0.00,VWS V14.01,2013-06-06 11:38:00,
2013-06-06 06:43:00,45.6,43.1,28.06,East,97,0.0,0.0,91,0.00,,---,0.00,VWS V14.01,2013-06-06 11:43:00,
2013-06-06 06:48:00,45.8,43.3,28.06,East,86,0.0,2.0,91,0.00,,---,0.00,VWS V14.01,2013-06-06 11:48:00,
2013-06-06 06:53:00,45.9,43.4,28.06,East,92,3.0,5.0,91,0.00,,---,0.00,VWS V14.01,2013-06-06 11:53:00,
2013-06-06 06:58:00,46.0,43.2,28.06,ENE,76,0.0,2.0,90,0.00,,---,0.00,VWS V14.01,2013-06-06 11:58:00,
2013-06-06 07:03:00,46.1,43.3,28.06,ESE,121,0.0,2.0,90,0.00,,---,0.00,VWS V14.01,2013-06-06 12:03:00,
2013-06-06 07:08:00,46.2,43.1,28.06,ENE,71,2.0,2.0,89,0.00,,---,0.00,VWS V14.01,2013-06-06 12:08:00,
2013-06-06 07:14:00,46.2,43.1,28.06,ENE,68,1.0,7.0,89,0.00,,---,0.00,VWS V14.01,2013-06-06 12:14:00,
2013-06-06 07:19:00,46.3,43.2,28.06,ESE,104,4.0,4.0,89,0.00,,---,0.00,VWS V14.01,2013-06-06 12:19:00,
2013-06-06 07:24:00,46.3,43.2,28.06,East,91,6.0,8.0,89,0.00,,---,0.00,VWS V14.01,2013-06-06 12:24:00,
2013-06-06 07:29:00,46.3,43.2,28.06,East,80,0.0,5.0,89,0.00,,---,0.00,VWS V14.01,2013-06-06 12:29:00,
2013-06-06 07:34:00,46.3,43.2,28.06,NE,42,1.0,1.0,89,0.00,,---,0.00,VWS V14.01,2013-06-06 12:34:00,
2013-06-06 07:39:00,46.4,43.3,28.06,ENE,67,3.0,3.0,89,0.00,,---,0.00,VWS V14.01,2013-06-06 12:39:00,
2013-06-06 07:44:00,46.5,43.4,28.06,East,90,5.0,7.0,89,0.00,,---,0.00,VWS V14.01,2013-06-06 12:44:00,
2013-06-06 07:49:00,46.5,43.4,28.06,ESE,113,0.0,3.0,89,0.00,,---,0.00,VWS V14.01,2013-06-06 12:49:00,
2013-06-06 07:54:00,46.7,43.3,28.06,ENE,76,0.0,3.0,88,0.00,,---,0.00,VWS V14.01,2013-06-06 12:54:00,
2013-06-06 07:59:00,46.8,43.4,28.06,ENE,67,0.0,0.0,88,0.00,,---,0.00,VWS V14.01,2013-06-06 12:59:00,
2013-06-06 08:04:00,46.8,43.4,28.06,ENE,69,1.0,1.0,88,0.00,,---,0.00,VWS V14.01,2013-06-06 13:04:00,
2013-06-06 08:09:00,46.9,43.5,28.06,East,97,2.0,2.0,88,0.00,,---,0.00,VWS V14.01,2013-06-06 13:09:00,
2013-06-06 08:14:00,47.0,43.3,28.06,East,101,3.0,7.0,87,0.00,,---,0.00,VWS V14.01,2013-06-06 13:14:00,
2013-06-06 08:19:00,47.1,43.4,28.06,East,82,2.0,3.0,87,0.00,,---,0.00,VWS V14.01,2013-06-06 13:19:00,
2013-06-06 08:25:00,47.1,43.4,28.06,East,100,3.0,5.0,87,0.00,,---,0.00,VWS V14.01,2013-06-06 13:25:00,
2013-06-06 08:30:00,47.1,43.4,28.06,ENE,63,1.0,5.0,87,0.00,,---,0.00,VWS V14.01,2013-06-06 13:30:00,
2013-06-06 08:35:00,47.1,43.1,28.07,ENE,73,0.0,3.0,86,0.00,,---,0.00,VWS V14.01,2013-06-06 13:35:00,
2013-06-06 08:40:00,47.2,43.2,28.07,East,97,3.0,5.0,86,0.00,,---,0.00,VWS V14.01,2013-06-06 13:40:00,
2013-06-06 08:45:00,47.3,43.0,28.07,ESE,114,2.0,7.0,85,0.00,,---,0.00,VWS V14.01,2013-06-06 13:45:00,
2013-06-06 08:50:00,47.6,43.3,28.07,East,98,3.0,5.0,85,0.00,,---,0.00,VWS V14.01,2013-06-06 13:50:00,
2013-06-06 08:55:00,47.8,42.9,28.07,ESE,113,0.0,3.0,83,0.00,,---,0.00,VWS V14.01,2013-06-06 13:55:00,
2013-06-06 09:00:00,48.1,42.9,28.07,ESE,104,5.0,7.0,82,0.00,,---,0.00,VWS V14.01,2013-06-06 14:00:00,
2013-06-06 09:05:00,48.5,43.3,28.07,ESE,119,5.0,5.0,82,0.00,,---,0.00,VWS V14.01,2013-06-06 14:05:00,
2013-06-06 09:10:00,49.0,43.1,28.07,East,99,2.0,2.0,80,0.00,,---,0.00,VWS V14.01,2013-06-06 14:10:00,
2013-06-06 09:15:00,49.2,43.0,28.07,ESE,105,2.0,2.0,79,0.00,,---,0.00,VWS V14.01,2013-06-06 14:15:00,
2013-06-06 09:20:00,49.2,42.6,28.07,ESE,118,2.0,7.0,78,0.00,,---,0.00,VWS V14.01,2013-06-06 14:20:00,
2013-06-06 09:25:00,49.3,43.1,28.07,SE,124,4.0,5.0,79,0.00,,---,0.00,VWS V14.01,2013-06-06 14:25:00,
2013-06-06 09:31:00,49.6,43.0,28.07,ESE,119,1.0,2.0,78,0.00,,---,0.00,VWS V14.01,2013-06-06 14:31:00,
2013-06-06 09:36:00,50.0,42.4,28.07,East,90,1.0,10.0,75,0.00,,---,0.00,VWS V14.01,2013-06-06 14:36:00,
2013-06-06 09:41:00,50.3,42.3,28.07,ENE,68,2.0,11.0,74,0.00,,---,0.00,VWS V14.01,2013-06-06 14:41:00,
2013-06-06 09:46:00,50.4,42.1,28.07,SSE,160,0.0,6.0,73,0.00,,---,0.00,VWS V14.01,2013-06-06 14:46:00,
2013-06-06 09:52:00,50.5,41.8,28.07,East,86,6.0,7.0,72,0.00,,---,0.00,VWS V14.01,2013-06-06 14:52:00,
2013-06-06 09:57:00,50.6,41.6,28.07,SSE,150,2.0,5.0,71,0.00,,---,0.00,VWS V14.01,2013-06-06 14:57:00,
2013-06-06 10:02:00,50.7,41.7,28.07,East,96,1.0,1.0,71,0.00,,---,0.00,VWS V14.01,2013-06-06 15:02:00,
2013-06-06 10:07:00,50.8,41.8,28.07,SSE,155,3.0,6.0,71,0.00,,---,0.00,VWS V14.01,2013-06-06 15:07:00,
2013-06-06 10:12:00,51.0,41.6,28.07,East,89,2.0,7.0,70,0.00,,---,0.00,VWS V14.01,2013-06-06 15:12:00,
2013-06-06 10:17:00,51.3,41.9,28.07,East,80,3.0,3.0,70,0.00,,---,0.00,VWS V14.01,2013-06-06 15:17:00,
2013-06-06 10:22:00,51.7,41.9,28.07,East,85,1.0,2.0,69,0.00,,---,0.00,VWS V14.01,2013-06-06 15:22:00,
2013-06-06 10:27:00,51.6,41.4,28.07,SE,130,2.0,5.0,68,0.00,,---,0.00,VWS V14.01,2013-06-06 15:27:00,
2013-06-06 10:32:00,51.4,42.0,28.07,SE,129,1.0,8.0,70,0.00,,---,0.00,VWS V14.01,2013-06-06 15:32:00,
2013-06-06 10:37:00,51.2,41.8,28.07,East,92,6.0,6.0,70,0.00,,---,0.00,VWS V14.01,2013-06-06 15:37:00,
2013-06-06 10:42:00,51.5,42.4,28.07,East,83,3.0,4.0,71,0.00,,---,0.00,VWS V14.01,2013-06-06 15:42:00,
2013-06-06 10:47:00,51.7,42.2,28.07,East,83,1.0,5.0,70,0.00,,---,0.00,VWS V14.01,2013-06-06 15:47:00,
2013-06-06 10:52:00,51.6,41.8,28.07,East,86,0.0,3.0,69,0.00,,---,0.00,VWS V14.01,2013-06-06 15:52:00,
2013-06-06 10:58:00,51.6,42.2,28.07,East,100,3.0,4.0,70,0.00,,---,0.00,VWS V14.01,2013-06-06 15:58:00,
2013-06-06 11:03:00,52.0,42.5,28.07,East,96,0.0,0.0,70,0.00,,---,0.00,VWS V14.01,2013-06-06 16:03:00,
2013-06-06 11:08:00,52.3,42.1,28.07,East,86,3.0,7.0,68,0.00,,---,0.00,VWS V14.01,2013-06-06 16:08:00,
2013-06-06 11:13:00,52.5,42.6,28.07,ENE,69,4.0,4.0,69,0.00,,---,0.00,VWS V14.01,2013-06-06 16:13:00,
2013-06-06 11:18:00,52.4,42.2,28.07,ESE,119,7.0,7.0,68,0.00,,---,0.00,VWS V14.01,2013-06-06 16:18:00,
2013-06-06 11:23:00,53.0,42.3,28.07,ESE,123,0.0,4.0,67,0.00,,---,0.00,VWS V14.01,2013-06-06 16:23:00,
2013-06-06 11:28:00,52.9,42.6,28.07,SE,136,3.0,4.0,68,0.00,,---,0.00,VWS V14.01,2013-06-06 16:28:00,
2013-06-06 11:33:00,52.8,42.5,28.07,SSE,157,6.0,7.0,68,0.00,,---,0.00,VWS V14.01,2013-06-06 16:33:00,
2013-06-06 11:38:00,52.8,43.7,28.07,SE,128,5.0,5.0,71,0.00,,---,0.00,VWS V14.01,2013-06-06 16:38:00,
2013-06-06 11:43:00,53.0,43.5,28.07,SE,141,4.0,10.0,70,0.00,,---,0.00,VWS V14.01,2013-06-06 16:43:00,
2013-06-06 11:48:00,52.9,43.8,28.07,East,80,6.0,6.0,71,0.00,,---,0.00,VWS V14.01,2013-06-06 16:48:00,
2013-06-06 11:53:00,52.5,43.4,28.07,SE,135,1.0,6.0,71,0.00,,---,0.00,VWS V14.01,2013-06-06 16:53:00,
2013-06-06 11:58:00,52.4,43.3,28.07,East,88,5.0,9.0,71,0.00,,---,0.00,VWS V14.01,2013-06-06 16:58:00,
2013-06-06 12:03:00,52.3,43.2,28.07,SSE,150,2.0,3.0,71,0.00,,---,0.00,VWS V14.01,2013-06-06 17:03:00,
2013-06-06 12:09:00,52.2,43.1,28.07,SE,130,4.0,8.0,71,0.00,,---,0.00,VWS V14.01,2013-06-06 17:09:00,
2013-06-06 12:14:00,52.1,43.0,28.07,East,83,2.0,5.0,71,0.00,,---,0.00,VWS V14.01,2013-06-06 17:14:00,
2013-06-06 12:19:00,52.3,42.8,28.08,SSE,159,0.0,3.0,70,0.00,,---,0.00,VWS V14.01,2013-06-06 17:19:00,
2013-06-06 12:24:00,52.6,43.5,28.08,East,92,5.0,7.0,71,0.00,,---,0.00,VWS V14.01,2013-06-06 17:24:00,
2013-06-06 12:29:00,52.7,43.2,28.08,East,79,3.0,5.0,70,0.00,,---,0.00,VWS V14.01,2013-06-06 17:29:00,
2013-06-06 12:34:00,52.9,43.0,28.07,SE,139,6.0,8.0,69,0.00,,---,0.00,VWS V14.01,2013-06-06 17:34:00,
2013-06-06 12:39:00,53.1,42.8,28.07,ESE,105,3.0,3.0,68,0.00,,---,0.00,VWS V14.01,2013-06-06 17:39:00,
2013-06-06 12:45:00,53.5,42.8,28.07,SE,124,1.0,5.0,67,0.00,,---,0.00,VWS V14.01,2013-06-06 17:45:00,
2013-06-06 12:50:00,53.9,42.8,28.07,SSE,162,0.0,7.0,66,0.00,,---,0.00,VWS V14.01,2013-06-06 17:50:00,
2013-06-06 12:55:00,54.3,43.2,28.07,ESE,113,4.0,5.0,66,0.00,,---,0.00,VWS V14.01,2013-06-06 17:55:00,
2013-06-06 13:00:00,55.0,43.1,28.07,ESE,117,2.0,5.0,64,0.00,,---,0.00,VWS V14.01,2013-06-06 18:00:00,
2013-06-06 13:05:00,55.3,42.9,28.07,SSE,163,0.0,6.0,63,0.00,,---,0.00,VWS V14.01,2013-06-06 18:05:00,
2013-06-06 13:10:00,55.5,42.7,28.07,SSE,156,0.0,7.0,62,0.00,,---,0.00,VWS V14.01,2013-06-06 18:10:00,
2013-06-06 13:15:00,55.5,43.1,28.07,ESE,116,7.0,9.0,63,0.00,,---,0.00,VWS V14.01,2013-06-06 18:15:00,
2013-06-06 13:20:00,55.9,43.5,28.07,SSE,148,7.0,7.0,63,0.00,,---,0.00,VWS V14.01,2013-06-06 18:20:00,
2013-06-06 13:25:00,55.9,43.5,28.07,SE,142,3.0,4.0,63,0.00,,---,0.00,VWS V14.01,2013-06-06 18:25:00,
2013-06-06 13:31:00,56.0,44.0,28.07,South,169,1.0,3.0,64,0.00,,---,0.00,VWS V14.01,2013-06-06 18:31:00,
2013-06-06 13:36:00,56.1,43.3,28.07,East,89,5.0,6.0,62,0.00,,---,0.00,VWS V14.01,2013-06-06 18:36:00,
2013-06-06 13:41:00,55.8,43.0,28.07,ESE,106,5.0,5.0,62,0.00,,---,0.00,VWS V14.01,2013-06-06 18:41:00,
2013-06-06 13:47:00,56.2,43.4,28.07,East,99,1.0,6.0,62,0.00,,---,0.00,VWS V14.01,2013-06-06 18:47:00,
2013-06-06 13:52:00,56.2,42.5,28.07,NE,54,8.0,8.0,60,0.00,,---,0.00,VWS V14.01,2013-06-06 18:52:00,
2013-06-06 13:57:00,56.1,43.3,28.07,East,85,0.0,5.0,62,0.00,,---,0.00,VWS V14.01,2013-06-06 18:57:00,
2013-06-06 14:02:00,56.3,43.5,28.07,South,173,4.0,4.0,62,0.00,,---,0.00,VWS V14.01,2013-06-06 19:02:00,
2013-06-06 14:07:00,56.5,43.2,28.07,ESE,113,8.0,8.0,61,0.00,,---,0.00,VWS V14.01,2013-06-06 19:07:00,
2013-06-06 14:12:00,56.6,43.3,28.07,ESE,103,3.0,4.0,61,0.00,,---,0.00,VWS V14.01,2013-06-06 19:12:00,
2013-06-06 14:17:00,57.1,43.4,28.06,SE,144,0.0,4.0,60,0.00,,---,0.00,VWS V14.01,2013-06-06 19:17:00,
2013-06-06 14:22:00,57.3,43.1,28.06,East,86,1.0,1.0,59,0.00,,---,0.00,VWS V14.01,2013-06-06 19:22:00,
2013-06-06 14:27:00,56.9,42.3,28.06,SE,130,0.0,1.0,58,0.00,,---,0.00,VWS V14.01,2013-06-06 19:27:00,
2013-06-06 14:32:00,57.0,42.8,28.06,ENE,71,0.0,5.0,59,0.00,,---,0.00,VWS V14.01,2013-06-06 19:32:00,
2013-06-06 14:36:00,57.2,43.0,28.06,ENE,69,1.0,7.0,59,0.00,,---,0.00,VWS V14.01,2013-06-06 19:36:00,
2013-06-06 14:41:00,57.3,43.1,28.06,South,188,5.0,7.0,59,0.00,,---,0.00,VWS V14.01,2013-06-06 19:41:00,
2013-06-06 14:46:00,57.6,43.4,28.06,ESE,105,2.0,4.0,59,0.00,,---,0.00,VWS V14.01,2013-06-06 19:46:00,
2013-06-06 14:51:00,57.3,43.1,28.06,SSE,148,6.0,7.0,59,0.00,,---,0.00,VWS V14.01,2013-06-06 19:51:00,
2013-06-06 14:57:00,56.9,42.7,28.06,SE,140,3.0,4.0,59,0.00,,---,0.00,VWS V14.01,2013-06-06 19:57:00,
2013-06-06 15:02:00,57.0,43.7,28.06,NE,40,3.0,3.0,61,0.00,,---,0.00,VWS V14.01,2013-06-06 20:02:00,
2013-06-06 15:07:00,57.2,43.0,28.06,East,86,0.0,5.0,59,0.00,,---,0.00,VWS V14.01,2013-06-06 20:07:00,
2013-06-06 15:12:00,57.5,43.3,28.06,East,92,2.0,3.0,59,0.00,,---,0.00,VWS V14.01,2013-06-06 20:12:00,
2013-06-06 15:17:00,57.6,43.8,28.06,SSE,150,2.0,5.0,60,0.00,,---,0.00,VWS V14.01,2013-06-06 20:17:00,
2013-06-06 15:22:00,57.3,43.1,28.06,SE,138,2.0,3.0,59,0.00,,---,0.00,VWS V14.01,2013-06-06 20:22:00,
2013-06-06 15:27:00,57.1,43.8,28.06,SE,130,4.0,5.0,61,0.00,,---,0.00,VWS V14.01,2013-06-06 20:27:00,
2013-06-06 15:32:00,56.8,43.1,28.06,South,172,0.0,3.0,60,0.00,,---,0.00,VWS V14.01,2013-06-06 20:32:00,
2013-06-06 15:37:00,56.8,43.5,28.06,SSE,155,0.0,1.0,61,0.00,,---,0.00,VWS V14.01,2013-06-06 20:37:00,
2013-06-06 15:42:00,56.9,43.6,28.06,ESE,110,1.0,2.0,61,0.00,,---,0.00,VWS V14.01,2013-06-06 20:42:00,
2013-06-06 15:47:00,57.4,43.2,28.06,SSE,149,6.0,6.0,59,0.00,,---,0.00,VWS V14.01,2013-06-06 20:47:00,
2013-06-06 15:53:00,57.7,43.5,28.06,SSE,167,0.0,0.0,59,0.00,,---,0.00,VWS V14.01,2013-06-06 20:53:00,
2013-06-06 15:58:00,58.1,43.0,28.06,ENE,76,3.0,4.0,57,0.00,,---,0.00,VWS V14.01,2013-06-06 20:58:00,
2013-06-06 16:03:00,57.6,43.0,28.05,East,90,0.0,3.0,58,0.00,,---,0.00,VWS V14.01,2013-06-06 21:03:00,
2013-06-06 16:08:00,57.6,43.0,28.05,ESE,109,5.0,5.0,58,0.00,,---,0.00,VWS V14.01,2013-06-06 21:08:00,
2013-06-06 16:13:00,57.5,42.8,28.05,East,95,1.0,5.0,58,0.00,,---,0.00,VWS V14.01,2013-06-06 21:13:00,
2013-06-06 16:18:00,57.5,43.3,28.05,ESE,111,4.0,6.0,59,0.00,,---,0.00,VWS V14.01,2013-06-06 21:18:00,
2013-06-06 16:23:00,57.5,42.8,28.05,SSE,147,4.0,7.0,58,0.00,,---,0.00,VWS V14.01,2013-06-06 21:23:00,
2013-06-06 16:28:00,57.2,42.6,28.05,SE,126,4.0,5.0,58,0.00,,---,0.00,VWS V14.01,2013-06-06 21:28:00,
2013-06-06 16:33:00,57.3,43.1,28.05,ENE,72,4.0,4.0,59,0.00,,---,0.00,VWS V14.01,2013-06-06 21:33:00,
2013-06-06 16:38:00,57.5,42.8,28.05,East,86,3.0,6.0,58,0.00,,---,0.00,VWS V14.01,2013-06-06 21:38:00,
2013-06-06 16:43:00,57.6,43.0,28.05,SE,140,2.0,3.0,58,0.00,,---,0.00,VWS V14.01,2013-06-06 21:43:00,
2013-06-06 16:48:00,57.6,42.5,28.05,South,172,4.0,4.0,57,0.00,,---,0.00,VWS V14.01,2013-06-06 21:48:00,
2013-06-06 16:53:00,57.6,42.5,28.05,SE,143,1.0,5.0,57,0.00,,---,0.00,VWS V14.01,2013-06-06 21:53:00,
2013-06-06 16:58:00,57.6,42.5,28.05,ENE,78,2.0,5.0,57,0.00,,---,0.00,VWS V14.01,2013-06-06 21:58:00,
2013-06-06 17:04:00,57.4,42.8,28.05,East,85,3.0,3.0,58,0.00,,---,0.00,VWS V14.01,2013-06-06 22:04:00,
2013-06-06 17:09:00,57.3,42.7,28.05,South,188,0.0,2.0,58,0.00,,---,0.00,VWS V14.01,2013-06-06 22:09:00,
2013-06-06 17:14:00,57.7,43.0,28.05,South,186,0.0,1.0,58,0.00,,---,0.00,VWS V14.01,2013-06-06 22:14:00,
2013-06-06 17:19:00,57.8,42.7,28.05,ESE,111,2.0,2.0,57,0.00,,---,0.00,VWS V14.01,2013-06-06 22:19:00,
2013-06-06 17:24:00,57.4,42.8,28.05,East,91,2.0,3.0,58,0.00,,---,0.00,VWS V14.01,2013-06-06 22:24:00,
2013-06-06 17:29:00,57.4,42.3,28.05,ENE,59,3.0,6.0,57,0.00,,---,0.00,VWS V14.01,2013-06-06 22:29:00,
2013-06-06 17:34:00,57.4,42.3,28.05,East,82,0.0,5.0,57,0.00,,---,0.00,VWS V14.01,2013-06-06 22:34:00,
2013-06-06 17:39:00,57.6,43.0,28.05,East,83,1.0,1.0,58,0.00,,---,0.00,VWS V14.01,2013-06-06 22:39:00,
2013-06-06 17:44:00,57.8,42.2,28.05,SE,145,0.0,3.0,56,0.00,,---,0.00,VWS V14.01,2013-06-06 22:44:00,
2013-06-06 17:49:00,57.6,42.0,28.05,East,79,1.0,1.0,56,0.00,,---,0.00,VWS V14.01,2013-06-06 22:49:00,
2013-06-06 17:55:00,57.4,41.8,28.05,ESE,104,0.0,5.0,56,0.00,,---,0.00,VWS V14.01,2013-06-06 22:55:00,
2013-06-06 18:00:00,57.4,41.4,28.05,SE,136,1.0,3.0,55,0.00,,---,0.00,VWS V14.01,2013-06-06 23:00:00,
2013-06-06 18:05:00,57.6,41.6,28.04,SE,135,2.0,2.0,55,0.00,,---,0.00,VWS V14.01,2013-06-06 23:05:00,
2013-06-06 18:10:00,57.7,42.1,28.04,SE,127,0.0,3.0,56,0.00,,---,0.00,VWS V14.01,2013-06-06 23:10:00,
2013-06-06 18:15:00,57.7,42.1,28.04,SE,124,3.0,3.0,56,0.00,,---,0.00,VWS V14.01,2013-06-06 23:15:00,
2013-06-06 18:20:00,57.7,42.6,28.04,SE,124,2.0,2.0,57,0.00,,---,0.00,VWS V14.01,2013-06-06 23:20:00,
2013-06-06 18:25:00,57.8,42.7,28.04,ENE,68,2.0,3.0,57,0.00,,---,0.00,VWS V14.01,2013-06-06 23:25:00,
2013-06-06 18:30:00,57.7,42.6,28.04,ESE,109,1.0,3.0,57,0.00,,---,0.00,VWS V14.01,2013-06-06 23:30:00,
2013-06-06 18:35:00,58.0,42.9,28.04,ENE,71,5.0,5.0,57,0.00,,---,0.00,VWS V14.01,2013-06-06 23:35:00,
2013-06-06 18:40:00,57.6,43.0,28.04,SE,137,0.0,0.0,58,0.00,,---,0.00,VWS V14.01,2013-06-06 23:40:00,
2013-06-06 18:45:00,57.4,41.8,28.04,ENE,67,0.0,0.0,56,0.00,,---,0.00,VWS V14.01,2013-06-06 23:45:00,
2013-06-06 18:50:00,57.2,42.6,28.04,East,80,0.0,0.0,58,0.00,,---,0.00,VWS V14.01,2013-06-06 23:50:00,
2013-06-06 18:55:00,57.3,42.2,28.04,East,79,2.0,3.0,57,0.00,,---,0.00,VWS V14.01,2013-06-06 23:55:00,
2013-06-06 19:01:00,57.3,42.2,28.04,ENE,76,3.0,3.0,57,0.00,,---,0.00,VWS V14.01,2013-06-07 00:01:00,
2013-06-06 19:06:00,57.3,42.2,28.04,East,80,1.0,1.0,57,0.00,,---,0.00,VWS V14.01,2013-06-07 00:06:00,
2013-06-06 19:11:00,57.3,42.7,28.04,East,80,0.0,0.0,58,0.00,,---,0.00,VWS V14.01,2013-06-07 00:11:00,
2013-06-06 19:16:00,57.3,42.2,28.04,East,86,0.0,0.0,57,0.00,,---,0.00,VWS V14.01,2013-06-07 00:16:00,
2013-06-06 19:21:00,57.6,42.5,28.04,East,83,0.0,3.0,57,0.00,,---,0.00,VWS V14.01,2013-06-07 00:21:00,
2013-06-06 19:26:00,57.5,41.9,28.04,East,85,0.0,2.0,56,0.00,,---,0.00,VWS V14.01,2013-06-07 00:26:00,
2013-06-06 19:31:00,57.3,42.7,28.04,East,85,0.0,0.0,58,0.00,,---,0.00,VWS V14.01,2013-06-07 00:31:00,
2013-06-06 19:36:00,57.0,42.4,28.04,East,82,1.0,1.0,58,0.00,,---,0.00,VWS V14.01,2013-06-07 00:36:00,
2013-06-06 19:41:00,57.0,42.4,28.04,East,82,0.0,1.0,58,0.00,,---,0.00,VWS V14.01,2013-06-07 00:41:00,
2013-06-06 19:46:00,56.7,42.5,28.04,East,88,0.0,0.0,59,0.00,,---,0.00,VWS V14.01,2013-06-07 00:46:00,
2013-06-06 19:52:00,56.4,42.7,28.04,East,88,0.0,0.0,60,0.00,,---,0.00,VWS V14.01,2013-06-07 00:52:00,
2013-06-06 19:56:00,56.3,43.0,28.04,East,88,0.0,0.0,61,0.00,,---,0.00,VWS V14.01,2013-06-07 00:56:00,
2013-06-06 20:02:00,56.2,42.5,28.04,East,88,0.0,1.0,60,0.00,,---,0.00,VWS V14.01,2013-06-07 01:02:00,
2013-06-06 20:07:00,56.0,42.8,28.04,East,88,0.0,0.0,61,0.00,,---,0.00,VWS V14.01,2013-06-07 01:07:00,
2013-06-06 20:12:00,55.9,42.7,28.04,East,88,0.0,0.0,61,0.00,,---,0.00,VWS V14.01,2013-06-07 01:12:00,
2013-06-06 20:17:00,55.6,42.8,28.04,East,88,0.0,1.0,62,0.00,,---,0.00,VWS V14.01,2013-06-07 01:17:00,
2013-06-06 20:22:00,55.4,42.6,28.04,East,88,0.0,0.0,62,0.00,,---,0.00,VWS V14.01,2013-06-07 01:22:00,
2013-06-06 20:27:00,55.2,42.8,28.04,East,88,0.0,0.0,63,0.00,,---,0.00,VWS V14.01,2013-06-07 01:27:00,
2013-06-06 20:32:00,55.1,43.6,28.03,East,88,0.0,0.0,65,0.00,,---,0.00,VWS V14.01,2013-06-07 01:32:00,
2013-06-06 20:38:00,54.9,43.4,28.03,East,88,0.0,0.0,65,0.00,,---,0.00,VWS V14.01,2013-06-07 01:38:00,
2013-06-06 20:43:00,54.7,43.2,28.03,East,88,0.0,0.0,65,0.00,,---,0.00,VWS V14.01,2013-06-07 01:43:00,
2013-06-06 20:48:00,54.5,43.8,28.03,East,88,0.0,0.0,67,0.00,,---,0.00,VWS V14.01,2013-06-07 01:48:00,
2013-06-06 20:53:00,54.2,43.9,28.03,East,88,0.0,0.0,68,0.00,,---,0.00,VWS V14.01,2013-06-07 01:53:00,
2013-06-06 20:58:00,53.9,43.2,28.03,East,88,0.0,0.0,67,0.00,,---,0.00,VWS V14.01,2013-06-07 01:58:00,
2013-06-06 21:03:00,53.5,43.2,28.03,East,88,0.0,0.0,68,0.00,,---,0.00,VWS V14.01,2013-06-07 02:03:00,
2013-06-06 21:09:00,53.1,43.2,28.03,East,88,0.0,0.0,69,0.00,,---,0.00,VWS V14.01,2013-06-07 02:09:00,
2013-06-06 21:14:00,52.5,44.5,28.03,East,88,0.0,0.0,74,0.00,,---,0.00,VWS V14.01,2013-06-07 02:14:00,
2013-06-06 21:19:00,51.8,44.1,28.03,East,88,0.0,0.0,75,0.00,,---,0.00,VWS V14.01,2013-06-07 02:19:00,
2013-06-06 21:24:00,51.2,43.6,28.03,East,88,0.0,0.0,75,0.00,,---,0.00,VWS V14.01,2013-06-07 02:24:00,
2013-06-06 21:29:00,50.6,44.0,28.03,East,88,0.0,0.0,78,0.00,,---,0.00,VWS V14.01,2013-06-07 02:29:00,
2013-06-06 21:34:00,50.0,43.8,28.03,East,88,0.0,0.0,79,0.00,,---,0.00,VWS V14.01,2013-06-07 02:34:00,
2013-06-06 21:40:00,49.5,43.9,28.03,East,88,0.0,0.0,81,0.00,,---,0.00,VWS V14.01,2013-06-07 02:40:00,
2013-06-06 21:45:00,48.9,43.3,28.03,East,88,0.0,0.0,81,0.00,,---,0.00,VWS V14.01,2013-06-07 02:45:00,
2013-06-06 21:50:00,48.3,42.8,28.03,East,88,0.0,0.0,81,0.00,,---,0.00,VWS V14.01,2013-06-07 02:50:00,
2013-06-06 21:55:00,47.8,42.6,28.03,East,88,0.0,0.0,82,0.00,,---,0.00,VWS V14.01,2013-06-07 02:55:00,
2013-06-06 22:00:00,47.2,42.0,28.03,East,88,0.0,0.0,82,0.00,,---,0.00,VWS V14.01,2013-06-07 03:00:00,
2013-06-06 22:05:00,46.6,42.0,28.03,East,88,0.0,0.0,84,0.00,,---,0.00,VWS V14.01,2013-06-07 03:05:00,
2013-06-06 22:10:00,46.0,41.8,28.03,East,88,0.0,0.0,85,0.00,,---,0.00,VWS V14.01,2013-06-07 03:10:00,
2013-06-06 22:16:00,45.6,42.0,28.03,East,88,0.0,0.0,87,0.00,,---,0.00,VWS V14.01,2013-06-07 03:16:00,
2013-06-06 22:21:00,45.1,41.5,28.03,East,88,0.0,0.0,87,0.00,,---,0.00,VWS V14.01,2013-06-07 03:21:00,
2013-06-06 22:26:00,44.6,41.3,28.03,East,88,0.0,0.0,88,0.00,,---,0.00,VWS V14.01,2013-06-07 03:26:00,
2013-06-06 22:31:00,44.2,41.2,28.03,East,88,0.0,0.0,89,0.00,,---,0.00,VWS V14.01,2013-06-07 03:31:00,
2013-06-06 22:36:00,43.8,40.8,28.03,East,88,0.0,0.0,89,0.00,,---,0.00,VWS V14.01,2013-06-07 03:36:00,
2013-06-06 22:41:00,43.4,40.7,28.03,East,88,0.0,0.0,90,0.00,,---,0.00,VWS V14.01,2013-06-07 03:41:00,
2013-06-06 22:47:00,43.0,40.3,28.03,East,88,0.0,0.0,90,0.00,,---,0.00,VWS V14.01,2013-06-07 03:47:00,
2013-06-06 22:52:00,42.5,39.8,28.03,East,88,0.0,0.0,90,0.00,,---,0.00,VWS V14.01,2013-06-07 03:52:00,
2013-06-06 22:58:00,42.2,39.5,28.03,East,88,0.0,0.0,90,0.00,,---,0.00,VWS V14.01,2013-06-07 03:58:00,
2013-06-06 23:01:00,42.0,39.6,28.03,East,88,0.0,0.0,91,0.00,,---,0.00,VWS V14.01,2013-06-07 04:01:00,
2013-06-06 23:02:00,42.0,39.6,28.03,East,88,0.0,0.0,91,0.00,,---,0.00,VWS V14.01,2013-06-07 04:02:00,
2013-06-06 23:07:00,41.8,39.7,28.03,East,88,0.0,0.0,92,0.00,,---,0.00,VWS V14.01,2013-06-07 04:07:00,
2013-06-06 23:12:00,41.5,39.3,28.03,East,88,0.0,0.0,92,0.00,,---,0.00,VWS V14.01,2013-06-07 04:12:00,
2013-06-06 23:17:00,41.2,39.1,28.03,East,88,0.0,0.0,92,0.00,,---,0.00,VWS V14.01,2013-06-07 04:17:00,
2013-06-06 23:23:00,40.6,38.2,28.03,East,88,0.0,0.0,91,0.00,,---,0.00,VWS V14.01,2013-06-07 04:23:00,
2013-06-06 23:28:00,40.3,38.2,28.03,East,88,0.0,0.0,92,0.00,,---,0.00,VWS V14.01,2013-06-07 04:28:00,
2013-06-06 23:33:00,40.1,38.0,28.03,East,88,0.0,0.0,92,0.00,,---,0.00,VWS V14.01,2013-06-07 04:33:00,
2013-06-06 23:38:00,40.0,38.1,28.03,East,88,0.0,0.0,93,0.00,,---,0.00,VWS V14.01,2013-06-07 04:38:00,
2013-06-06 23:43:00,40.1,38.2,28.03,East,88,0.0,0.0,93,0.00,,---,0.00,VWS V14.01,2013-06-07 04:43:00,
2013-06-06 23:48:00,40.0,38.1,28.03,East,88,0.0,0.0,93,0.00,,---,0.00,VWS V14.01,2013-06-07 04:48:00,
2013-06-06 23:53:00,39.8,38.2,28.03,East,88,0.0,0.0,94,0.00,,---,0.00,VWS V14.01,2013-06-07 04:53:00,
2013-06-06 23:58:00,39.6,37.8,28.03,East,88,0.0,0.0,93,0.00,,---,0.00,VWS V14.01,2013-06-07 04:58:00,